[[{"header":{"parameterUnit":"m.s-1","parameterCategory":1,"la1":30.2991,"la2":30.254,"lo1":-89.0895,"lo2":-89.0444,"dy":0.0017,"dx":0.0017,"nx":28,"ny":28,"refTime":"2025-03-26T09:00:00:Z","depth":0,"parameterNumber":2,"parameterNumberName":"U-component_of_WINDS"},"data":[0,0,0,0,0,0,0,0,0,0,0,0,0,0,0,0,0,0,0,0,0,0,0,0,0,0,0,0,0,0,0,0,0,0,0,0,0,0,0,0,0,0,0,0,0,0,0,0,0,0,0,0,0,0,0,0,0,0,0.502,0.502,0,0.4969,0.4969,0.4968,0.4922,0.4921,0.4921,0.492,0.4869,0.4869,0.4868,0,0,0,0,0,0,0,0,0,0,0,0,0,0.508,0.5079,0.502,0.502,0.5019,0.4969,0.4969,0.4968,0.4922,0.4921,0.492,0.492,0.487,0.4869,0.4868,0,0,0,0,0,0,0,0,0,0,0,0,0,0.5044,0.5079,0.5021,0.499,0.4987,0.4969,0.4969,0.4968,0.4922,0.4921,0.492,0.4919,0.487,0.4869,0.4867,0.4877,0,0,0.4864,0.4863,0,0,0,0,0,0,0,0,0.5046,0.5042,0.4995,0.4992,0.4988,0.4951,0.4971,0.4937,0.4922,0.4947,0.492,0.4919,0.4897,0.4894,0.4886,0.4874,0.4872,0.4864,0.4863,0.4862,0.4862,0,0,0,0,0,0,0,0.5049,0.5044,0.5,0.4995,0.499,0.498,0.4974,0.4964,0.4927,0.4944,0.4941,0.4935,0.4895,0.4887,0.4885,0.4871,0.4864,0.4863,0.4862,0.4861,0.4866,0.4867,0,0,0,0,0,0,0.5056,0.5046,0.5002,0.4999,0.5016,0.4979,0.4972,0.4964,0.4927,0.4921,0.4936,0.4933,0.489,0.4886,0.4883,0.4892,0.4862,0.4861,0.486,0.4865,0.4866,0.4867,0,0,0,0,0,0,0.5057,0.5052,0.5004,0.5021,0.5014,0.4979,0.497,0.4963,0.4955,0.4921,0.4914,0.4935,0.4889,0.4884,0.4879,0.4889,0.4861,0.4859,0.4864,0.4865,0.4867,0.491,0,0,0,0,0,0,0.5059,0.5053,0.5056,0.5022,0.5014,0.5,0.497,0.4963,0.4953,0.4949,0.4918,0.4912,0.4888,0.4881,0.4877,0.4887,0.4858,0.4863,0.4865,0.4866,0.4908,0.4913,0.4917,0,0,0,0,0,0.5061,0.507,0.5056,0.5051,0.5016,0.5001,0.4997,0.4968,0.4954,0.4957,0.4935,0.4913,0.4889,0.4881,0.4876,0.4886,0.4862,0.4864,0.4866,0.4906,0.4912,0.4917,0,0,0,0,0,0,0.5106,0.5065,0.5049,0.5047,0.5028,0.4993,0.4996,0.4976,0.4961,0.4958,0.4923,0.4917,0.4915,0.49,0.4892,0.4894,0.4872,0.4874,0.4904,0.491,0.4914,0.4919,0.4857,0,0,0,0,0,0.5116,0.5107,0.5071,0.5073,0.5064,0.5032,0.5024,0.5004,0.4983,0.4975,0.4952,0.4934,0.4922,0.4915,0.4902,0.4905,0.4898,0.491,0.4914,0.4918,0.492,0.4922,0.4927,0.4873,0.4873,0.4873,0,0,0.5136,0.5112,0.5109,0.5081,0.5064,0.5056,0.5025,0.5018,0.5012,0.4974,0.4967,0.495,0.4927,0.4926,0.4925,0.4913,0.4934,0.4921,0.4924,0.4924,0.4925,0.493,0.4934,0.4875,0.4874,0.4874,0,0,0.5169,0.5149,0.5149,0.5132,0.5107,0.5085,0.5085,0.5054,0.5041,0.5034,0.5005,0.4998,0.4978,0.4963,0.4952,0.498,0.4959,0.4976,0.5002,0.5004,0.5008,0.5012,0.5023,0.5027,0.4978,0.4978,0.4978,0,0.5197,0.5183,0.5152,0.5146,0.5135,0.51,0.51,0.5086,0.5058,0.5052,0.5039,0.5013,0.4995,0.4991,0.4998,0.499,0.499,0.498,0.501,0.5013,0.5016,0.5027,0.5031,0.498,0.498,0.498,0.498,0,0.522,0.5211,0.5214,0.5187,0.5177,0.5174,0.5143,0.5136,0.5117,0.5097,0.5091,0.5068,0.505,0.5047,0.5028,0.5041,0.5034,0.5016,0.4995,0.5024,0.5034,0.5037,0.4984,0.4983,0.4982,0.4982,0,0,0.5281,0.5236,0.5238,0.5226,0.5195,0.5188,0.5184,0.5166,0.5162,0.5143,0.514,0.5124,0.5107,0.5095,0.5074,0.5076,0.5101,0.5058,0.5057,0.5068,0.5115,0.513,0.5135,0.5087,0.5087,0.5088,0.5117,0,0.5309,0.53,0.5271,0.5271,0.5263,0.5229,0.5226,0.5207,0.5188,0.5179,0.5158,0.5148,0.5126,0.5119,0.5119,0.5098,0.511,0.5095,0.5085,0.5085,0.5093,0.5139,0.5155,0.5183,0.512,0.5121,0.5121,0,0.5342,0.5325,0.5324,0.5294,0.5289,0.5287,0.5269,0.526,0.5238,0.5224,0.5212,0.5188,0.5183,0.5162,0.5155,0.5146,0.514,0.5129,0.5129,0.5128,0.5106,0.5141,0.5192,0.5197,0.5126,0.5126,0.5126,0,0.5388,0.5365,0.5362,0.5352,0.5317,0.5316,0.5301,0.5278,0.527,0.5254,0.5248,0.5232,0.5224,0.5212,0.5186,0.5173,0.5183,0.5159,0.5172,0.5173,0.5177,0.5178,0.5229,0.5171,0.5171,0.5171,0.5171,0,0.5424,0.5425,0.5382,0.538,0.538,0.5348,0.5349,0.5331,0.5312,0.5306,0.5276,0.5272,0.5236,0.5228,0.5207,0.5205,0.5201,0.5191,0.5186,0.5195,0.5196,0.5191,0.5189,0.5172,0.5171,0.5171,0.5171,0,0.5476,0.5447,0.5442,0.5408,0.54,0.5402,0.5374,0.5371,0.535,0.5344,0.5341,0.5309,0.5298,0.5269,0.5251,0.5237,0.5242,0.5231,0.5249,0.5246,0.5262,0.5261,0.5314,0.5319,0.5256,0.5256,0.5257,0,0.5502,0.5502,0.5468,0.5462,0.5449,0.5439,0.543,0.5398,0.539,0.5366,0.5366,0.5353,0.534,0.5325,0.53,0.5286,0.5276,0.5295,0.5274,0.5283,0.5278,0.5279,0.528,0.53,0.5301,0.5302,0.5302,0,0.5551,0.5537,0.5524,0.5508,0.5498,0.5483,0.5467,0.5464,0.5428,0.542,0.5409,0.5399,0.538,0.5368,0.535,0.5336,0.5314,0.5309,0.5312,0.5322,0.5333,0.5329,0.5264,0.5308,0.5308,0.5307,0.5307,0.5307,0.5592,0.559,0.5567,0.5555,0.5539,0.5524,0.5521,0.5499,0.5488,0.5471,0.5452,0.5443,0.5421,0.5395,0.5382,0.5375,0.5364,0.5367,0.5368,0.537,0.5375,0.5333,0.5372,0.5371,0.5371,0.5371,0.5371,0,0.5641,0.5624,0.5613,0.5591,0.5581,0.556,0.5541,0.5535,0.5527,0.5508,0.5497,0.5484,0.5472,0.5446,0.5432,0.5431,0.5421,0.5428,0.5429,0.5426,0.5385,0.5385,0.5437,0.5437,0.5437,0.5437,0.5437,0.5437,0.5665,0.5662,0.5646,0.5635,0.5618,0.5608,0.5599,0.5586,0.5571,0.5558,0.5548,0.5531,0.551,0.5494,0.5482,0.5475,0.5472,0.5483,0.5473,0.5435,0.5429,0.5423,0.5423,0.5482,0.5482,0.5515,0.5515,0.5516]},{"header":{"parameterUnit":"m.s-1","parameterCategory":1,"la1":30.2991,"la2":30.254,"lo1":-89.0895,"lo2":-89.0444,"dy":0.0017,"dx":0.0017,"nx":28,"ny":28,"refTime":"2025-03-26T09:00:00:Z","depth":0,"parameterNumber":3,"parameterNumberName":"V-component_of_WINDS"},"data":[0,0,0,0,0,0,0,0,0,0,0,0,0,0,0,0,0,0,0,0,0,0,0,0,0,0,0,0,0,0,0,0,0,0,0,0,0,0,0,0,0,0,0,0,0,0,0,0,0,0,0,0,0,0,0,0,0,0,-0.5021,-0.5021,0,-0.505,-0.505,-0.5051,-0.5067,-0.5067,-0.5067,-0.5067,-0.5097,-0.5098,-0.5098,0,0,0,0,0,0,0,0,0,0,0,0,0,-0.4981,-0.4981,-0.5021,-0.5021,-0.5022,-0.505,-0.505,-0.5051,-0.5066,-0.5067,-0.5067,-0.5067,-0.5097,-0.5098,-0.5099,0,0,0,0,0,0,0,0,0,0,0,0,0,-0.5003,-0.4981,-0.5021,-0.5033,-0.5034,-0.505,-0.505,-0.5051,-0.5066,-0.5067,-0.5067,-0.5067,-0.5096,-0.5098,-0.5099,-0.5105,0,0,-0.5102,-0.5103,0,0,0,0,0,0,0,0,-0.5001,-0.5004,-0.5031,-0.5032,-0.5034,-0.5055,-0.5047,-0.5069,-0.5066,-0.5054,-0.5067,-0.5067,-0.5083,-0.5085,-0.5091,-0.5106,-0.5107,-0.5102,-0.5103,-0.5104,-0.5104,0,0,0,0,0,0,0,-0.5,-0.5003,-0.5032,-0.5031,-0.5033,-0.5037,-0.5041,-0.5051,-0.5068,-0.5055,-0.5057,-0.506,-0.5084,-0.5089,-0.5091,-0.5108,-0.5102,-0.5103,-0.5104,-0.5104,-0.5131,-0.5131,0,0,0,0,0,0,-0.4996,-0.5002,-0.5032,-0.5033,-0.5017,-0.5038,-0.5042,-0.5048,-0.5068,-0.5071,-0.506,-0.506,-0.5087,-0.509,-0.5092,-0.5101,-0.5104,-0.5105,-0.5105,-0.5131,-0.5131,-0.5131,0,0,0,0,0,0,-0.4995,-0.4999,-0.503,-0.5018,-0.5022,-0.5039,-0.5046,-0.5048,-0.5054,-0.5071,-0.5074,-0.5062,-0.5087,-0.5091,-0.5102,-0.5103,-0.5105,-0.5106,-0.5131,-0.5131,-0.5131,-0.5119,0,0,0,0,0,0,-0.4994,-0.4998,-0.5,-0.5018,-0.5023,-0.5039,-0.5046,-0.5049,-0.5056,-0.5057,-0.5074,-0.5077,-0.5088,-0.51,-0.5103,-0.5104,-0.5107,-0.5131,-0.5131,-0.5131,-0.5119,-0.5118,-0.5118,0,0,0,0,0,-0.4993,-0.4996,-0.5,-0.5004,-0.5026,-0.5039,-0.5042,-0.5053,-0.5056,-0.5058,-0.507,-0.5077,-0.5102,-0.5101,-0.5104,-0.5106,-0.5131,-0.5131,-0.5131,-0.5119,-0.5118,-0.5118,0,0,0,0,0,0,-0.4978,-0.4998,-0.5004,-0.5012,-0.5024,-0.5041,-0.5045,-0.5052,-0.5063,-0.5063,-0.5078,-0.5082,-0.5091,-0.51,-0.5098,-0.5113,-0.5117,-0.5118,-0.5107,-0.5107,-0.5106,-0.5104,-0.5108,0,0,0,0,0,-0.4976,-0.4985,-0.5002,-0.5008,-0.5013,-0.5028,-0.5034,-0.5042,-0.5055,-0.506,-0.5071,-0.5083,-0.5094,-0.5101,-0.5112,-0.5121,-0.5125,-0.5124,-0.5123,-0.5122,-0.5123,-0.5129,-0.5128,-0.5131,-0.5131,-0.5131,0,0,-0.4972,-0.4984,-0.4988,-0.5005,-0.5015,-0.5024,-0.5032,-0.5041,-0.5048,-0.5061,-0.5072,-0.5081,-0.5096,-0.5106,-0.5111,-0.5113,-0.5123,-0.5122,-0.5121,-0.5122,-0.5129,-0.5128,-0.5128,-0.5131,-0.5131,-0.5131,0,0,-0.4968,-0.4978,-0.4984,-0.4994,-0.5009,-0.5019,-0.502,-0.5037,-0.5044,-0.5055,-0.5065,-0.5074,-0.5092,-0.5102,-0.5109,-0.5111,-0.5118,-0.5114,-0.511,-0.5116,-0.5116,-0.5115,-0.5116,-0.5117,-0.5114,-0.5114,-0.5114,0,-0.4961,-0.4975,-0.4987,-0.4996,-0.5003,-0.5015,-0.5023,-0.5031,-0.5049,-0.5054,-0.5056,-0.508,-0.509,-0.5103,-0.5104,-0.5109,-0.5112,-0.5112,-0.5115,-0.5115,-0.5115,-0.5116,-0.5116,-0.5114,-0.5114,-0.5114,-0.5114,0,-0.4965,-0.4975,-0.4978,-0.4995,-0.5003,-0.501,-0.5025,-0.5031,-0.5039,-0.5049,-0.5061,-0.5074,-0.5088,-0.5092,-0.5099,-0.5106,-0.5107,-0.5112,-0.5116,-0.5114,-0.5115,-0.5115,-0.5113,-0.5113,-0.5113,-0.5113,0,0,-0.4953,-0.4977,-0.4978,-0.4986,-0.5003,-0.5011,-0.502,-0.5033,-0.5039,-0.5051,-0.5059,-0.5074,-0.5079,-0.5088,-0.5097,-0.5102,-0.5103,-0.5106,-0.5107,-0.5105,-0.5112,-0.5108,-0.5108,-0.5108,-0.5108,-0.5108,-0.511,0,-0.4952,-0.4968,-0.498,-0.4991,-0.5001,-0.5013,-0.5021,-0.5032,-0.5042,-0.5052,-0.5063,-0.5073,-0.5079,-0.5084,-0.509,-0.5101,-0.5104,-0.5101,-0.5116,-0.5116,-0.5112,-0.5109,-0.5105,-0.5106,-0.5111,-0.5111,-0.5111,0,-0.4954,-0.4965,-0.4977,-0.4994,-0.4999,-0.5005,-0.5019,-0.5028,-0.5042,-0.5049,-0.5059,-0.5068,-0.5078,-0.5082,-0.5097,-0.5094,-0.5101,-0.5108,-0.5108,-0.511,-0.5113,-0.5111,-0.5107,-0.5108,-0.5112,-0.5112,-0.5112,0,-0.4944,-0.4962,-0.4972,-0.4979,-0.4999,-0.5003,-0.5012,-0.5026,-0.5034,-0.5046,-0.5051,-0.5065,-0.5072,-0.5082,-0.5095,-0.5097,-0.5109,-0.5113,-0.5116,-0.5115,-0.5118,-0.5117,-0.5115,-0.5122,-0.5122,-0.5122,-0.5122,0,-0.4942,-0.4949,-0.4968,-0.4974,-0.4983,-0.4997,-0.5005,-0.5015,-0.5028,-0.5036,-0.5048,-0.5056,-0.5073,-0.5083,-0.5093,-0.5104,-0.5108,-0.5114,-0.5116,-0.5113,-0.5112,-0.5117,-0.5118,-0.5122,-0.5122,-0.5122,-0.5122,0,-0.4933,-0.4946,-0.4957,-0.4976,-0.498,-0.4986,-0.5002,-0.5009,-0.5019,-0.503,-0.5034,-0.505,-0.5063,-0.5077,-0.5094,-0.5101,-0.5112,-0.5116,-0.5107,-0.5109,-0.511,-0.511,-0.5112,-0.5113,-0.5118,-0.5118,-0.5118,0,-0.493,-0.4936,-0.4955,-0.4962,-0.497,-0.498,-0.4988,-0.5003,-0.5011,-0.5027,-0.5032,-0.5046,-0.5058,-0.5077,-0.5091,-0.5105,-0.5109,-0.5109,-0.5111,-0.5108,-0.511,-0.5109,-0.511,-0.5108,-0.5108,-0.5108,-0.5108,0,-0.4925,-0.4932,-0.4943,-0.4956,-0.4965,-0.4976,-0.4988,-0.4993,-0.501,-0.5018,-0.5031,-0.504,-0.5058,-0.5072,-0.5087,-0.5097,-0.5105,-0.5107,-0.5108,-0.5105,-0.51,-0.5103,-0.5105,-0.5107,-0.5107,-0.5107,-0.5107,-0.5107,-0.492,-0.4926,-0.494,-0.4952,-0.4963,-0.4973,-0.4981,-0.4992,-0.5003,-0.5019,-0.5027,-0.504,-0.5055,-0.5077,-0.5086,-0.5097,-0.51,-0.5101,-0.5102,-0.5102,-0.5101,-0.5098,-0.51,-0.51,-0.51,-0.51,-0.51,0,-0.4916,-0.4926,-0.4937,-0.4953,-0.4962,-0.4969,-0.4983,-0.4991,-0.5002,-0.5015,-0.5026,-0.5042,-0.5055,-0.507,-0.5085,-0.5091,-0.5095,-0.5094,-0.5094,-0.5096,-0.5098,-0.5095,-0.5091,-0.5091,-0.5091,-0.5091,-0.5091,-0.5091,-0.4915,-0.4926,-0.4934,-0.495,-0.496,-0.4973,-0.498,-0.4991,-0.5001,-0.5018,-0.5029,-0.5039,-0.5053,-0.5069,-0.5082,-0.5086,-0.5091,-0.5089,-0.5094,-0.5095,-0.5096,-0.5097,-0.5095,-0.509,-0.509,-0.5092,-0.5092,-0.5092]}]]